Location: ??
(34.9170°N, 135.5016°E)
Time: 19:54:36
(UTC+00:00)

deb Explorer IX - All Passes

Search period start: 04 March 2021 00:00
Search period end: 14 March 2021 00:00
Orbit: 537 x 1102 km, 38.8° (Epoch: 04 March)

Date Brightness Start Highest point End Pass type
(mag) Time Alt. Az. Time Alt. Az. Time Alt. Az.
04 Mar - 14:24:25 10° SSE 14:25:52 11° SE 14:27:18 10° SE night (unlit)
04 Mar - 16:07:58 10° SW 16:12:08 53° SSE 16:16:04 10° ENE night (unlit)
04 Mar - 17:54:48 10° W 17:58:48 55° N 18:02:50 10° ENE visible
04 Mar - 19:41:47 10° WNW 19:45:47 55° N 19:50:06 10° E visible
04 Mar - 21:28:20 10° WNW 21:32:33 59° SSW 21:37:20 10° SE daylight
04 Mar - 23:16:15 10° WSW 23:19:01 15° SW 23:21:59 10° S daylight
05 Mar - 14:00:24 10° SSE 14:02:10 12° SE 14:03:52 10° ESE night (unlit)
05 Mar - 15:44:12 10° SW 15:48:28 54° SSE 15:52:26 10° ENE night (unlit)
05 Mar - 17:31:07 10° W 17:35:08 55° N 17:39:08 10° ENE visible
05 Mar - 19:18:09 10° WNW 19:22:07 54° N 19:26:20 10° E visible
05 Mar - 21:04:44 10° WNW 21:08:52 58° SSW 21:13:28 10° SE daylight
05 Mar - 22:52:45 10° WSW 22:55:17 15° SW 22:57:58 10° S daylight
06 Mar - 13:36:23 10° S 13:38:27 13° SE 13:40:25 10° ESE night (unlit)
06 Mar - 15:20:24 10° SW 15:24:47 55° SSE 15:28:48 10° ENE night (unlit)
06 Mar - 17:07:23 10° W 17:11:29 55° N 17:15:27 10° ENE night (unlit)
06 Mar - 18:54:30 10° WNW 18:58:27 54° N 19:02:35 10° E visible
06 Mar - 20:41:07 10° WNW 20:45:10 58° SSW 20:49:38 10° SE visible
06 Mar - 22:29:16 10° WSW 22:31:32 14° SW 22:33:58 10° S daylight
07 Mar - 13:12:21 10° S 13:14:43 13° SE 13:16:57 10° ESE night (unlit)
07 Mar - 14:56:34 10° SW 15:01:06 56° SSE 15:05:10 10° ENE night (unlit)
07 Mar - 16:43:38 10° W 16:47:49 55° N 16:51:47 10° ENE night (unlit)
07 Mar - 18:30:49 10° WNW 18:34:47 54° N 18:38:50 10° E visible
07 Mar - 20:17:29 10° WNW 20:21:29 57° SSW 20:25:49 10° SE visible
07 Mar - 22:05:46 10° WSW 22:07:49 13° SW 22:09:57 10° S daylight
08 Mar - 12:48:18 10° S 12:50:58 14° SE 12:53:28 10° ESE night (unlit)
08 Mar - 14:32:42 10° SW 14:37:24 57° SSE 14:41:34 10° ENE night (unlit)
08 Mar - 16:19:51 10° W 16:24:08 55° N 16:28:08 10° ENE night (unlit)
08 Mar - 18:07:06 10° WNW 18:11:07 54° N 18:15:07 10° E visible
08 Mar - 19:53:50 10° WNW 19:57:48 56° SSW 20:02:01 10° SE visible
08 Mar - 21:42:17 10° WSW 21:44:05 12° SW 21:45:58 10° S daylight
09 Mar - 12:24:15 10° S 12:27:12 15° SE 12:29:57 10° ESE night (unlit)
09 Mar - 14:08:49 10° SW 14:13:41 58° SSE 14:17:57 10° ENE night (unlit)
09 Mar - 15:56:02 10° W 16:00:27 56° N 16:04:29 10° ENE night (unlit)
09 Mar - 17:43:22 10° WNW 17:47:27 54° N 17:51:25 10° E visible
09 Mar - 19:30:10 10° WNW 19:34:07 55° SSW 19:38:14 10° SE visible
09 Mar - 21:18:48 10° WSW 21:20:22 12° SW 21:21:59 10° SSW daylight
10 Mar - 12:00:11 10° S 12:03:26 16° SE 12:06:25 10° ESE night (unlit)
10 Mar - 13:44:54 10° SW 13:49:57 59° SSE 13:54:19 10° ENE night (unlit)
10 Mar - 15:32:12 10° W 15:36:45 56° N 15:40:50 10° ENE night (unlit)
10 Mar - 17:19:37 10° WNW 17:23:46 54° N 17:27:44 10° E night (unlit)
10 Mar - 19:06:29 10° WNW 19:10:26 55° SSW 19:14:29 10° SE visible
10 Mar - 20:55:18 10° SW 20:56:38 11° SW 20:58:00 10° SSW daylight
11 Mar - 11:36:07 10° S 11:39:38 17° SE 11:42:52 10° ESE visible
11 Mar - 13:20:57 10° SW 13:26:12 60° SSE 13:30:41 10° ENE night (unlit)
11 Mar - 15:08:20 10° W 15:13:02 57° N 15:17:12 10° ENE night (unlit)
11 Mar - 16:55:50 10° WNW 17:00:05 55° N 17:04:03 10° E night (unlit)
11 Mar - 18:42:46 10° WNW 18:46:45 55° SSW 18:50:44 10° SE visible
11 Mar - 20:31:47 10° SW 20:32:54 11° SW 20:34:02 10° SSW visible
12 Mar - 11:12:02 10° S 11:15:49 18° SE 11:19:17 10° ESE visible
12 Mar - 12:56:59 10° SW 13:02:25 61° SSE 13:07:04 10° ENE night (unlit)
12 Mar - 14:44:26 10° W 14:49:18 58° N 14:53:34 10° ENE night (unlit)
12 Mar - 16:32:00 10° WNW 16:36:22 55° N 16:40:23 10° E night (unlit)
12 Mar - 18:19:01 10° WNW 18:23:03 54° SSW 18:27:01 10° SE visible
12 Mar - 20:08:15 10° SW 20:09:11 11° SW 20:10:05 10° SSW visible
13 Mar - 10:47:56 10° S 10:51:59 18° SE 10:55:41 10° ESE visible
13 Mar - 12:32:59 10° SW 12:38:38 62° SSE 12:43:25 10° ENE visible
13 Mar - 14:20:30 10° W 14:25:34 59° N 14:29:56 10° ENE night (unlit)
13 Mar - 16:08:10 10° WNW 16:12:40 56° N 16:16:43 10° E night (unlit)
13 Mar - 17:55:15 10° WNW 17:59:22 54° SSW 18:03:18 10° SE night (unlit)
13 Mar - 19:44:41 10° SW 19:45:26 10° SW 19:46:12 10° SSW visible
